Tillbaka till svenska Fidonet
English   Information   Debug  
FILM   0/18
FNEWS_PUBLISH   4926
FN_SYSOP   42201
FN_SYSOP_OLD1   71952
FTP_FIDO   0/2
FTSC_PUBLIC   0/13973
FUNNY   0/4886
GENEALOGY.EUR   0/71
GET_INFO   105
GOLDED   0/408
HAM   0/16662
HOLYSMOKE   0/6791
HOT_SITES   0/1
HTMLEDIT   0/71
HUB203   466
HUB_100   264
HUB_400   39
HUMOR   0/29
IC   0/2851
INTERNET   0/424
INTERUSER   0/3
IP_CONNECT   719
JAMNNTPD   0/233
JAMTLAND   0/47
KATTY_KORNER   0/41
LAN   0/16
LINUX-USER   0/19
LINUXHELP   0/1155
LINUX   0/22300
LINUX_BBS   0/957
mail   18.68
mail_fore_ok   249
MENSA   0/341
MODERATOR   0/102
MONTE   0/992
MOSCOW_OKLAHOMA   0/1245
MUFFIN   0/783
MUSIC   0/321
N203_STAT   938
N203_SYSCHAT   313
NET203   321
NET204   69
NET_DEV   0/10
NORD.ADMIN   0/101
NORD.CHAT   0/2572
NORD.FIDONET   189
NORD.HARDWARE   0/28
NORD.KULTUR   0/114
NORD.PROG   0/32
NORD.SOFTWARE   0/88
NORD.TEKNIK   0/58
NORD   0/453
OCCULT_CHAT   0/93
OS2BBS   0/787
OS2DOSBBS   0/580
OS2HW   0/42
OS2INET   0/37
OS2LAN   0/134
OS2PROG   0/36
OS2REXX   0/113
OS2USER-L   207
OS2   0/4830
OSDEBATE   0/18996
PASCAL   0/490
PERL   0/457
PHP   0/45
POINTS   0/405
POLITICS   0/29554
POL_INC   0/14731
PSION   103
R20_ADMIN   1133
R20_AMATORRADIO   0/2
R20_BEST_OF_FIDONET   16
R20_CHAT   0/896
R20_DEPP   0/3
R20_DEV   400
R20_ECHO2   1833
R20_ECHOPRES   0/35
R20_ESTAT   0/719
R20_FIDONETPROG...
...RAM.MYPOINT
  0/2
R20_FIDONETPROGRAM   0/22
R20_FIDONET   0/248
R20_FILEFIND   0/24
R20_FILEFOUND   0/22
R20_HIFI   0/3
R20_INFO2   3726
R20_INTERNET   0/12940
R20_INTRESSE   0/60
R20_INTR_KOM   0/99
R20_KANDIDAT.CHAT   42
R20_KANDIDAT   28
R20_KOM_DEV   112
R20_KONTROLL   0/13360
R20_KORSET   0/18
R20_LOKALTRAFIK   0/24
R20_MODERATOR   0/1852
R20_NC   76
R20_NET200   245
R20_NETWORK.OTH...
...ERNETS
  0/13
R20_OPERATIVSYS...
...TEM.LINUX
  0/44
R20_PROGRAMVAROR   0/1
R20_REC2NEC   534
R20_SFOSM   0/341
R20_SF   0/108
R20_SPRAK.ENGLISH   0/1
R20_SQUISH   107
R20_TEST   2
R20_WORST_OF_FIDONET   20
RAR   0/9
RA_MULTI   106
RA_UTIL   0/162
REGCON.EUR   0/2068
REGCON   0/13
SCIENCE   0/1206
SF   0/239
SHAREWARE_SUPPORT   0/5146
SHAREWRE   0/14
SIMPSONS   0/169
STATS_OLD1   0/2539.065
STATS_OLD2   0/2530
STATS_OLD3   0/2395.095
STATS_OLD4   0/1692.25
SURVIVOR   0/495
SYSOPS_CORNER   0/3
SYSOP   0/84
TAGLINES   0/112
TEAMOS2   0/4530
TECH   0/2617
TEST.444   0/105
TRAPDOOR   0/19
TREK   0/755
TUB   0/290
UFO   0/40
UNIX   0/1316
USA_EURLINK   0/102
USR_MODEMS   0/1
VATICAN   0/2740
VIETNAM_VETS   0/14
VIRUS   0/378
VIRUS_INFO   0/201
VISUAL_BASIC   0/473
WHITEHOUSE   0/5187
WIN2000   0/101
WIN32   0/30
WIN95   0/4291
WIN95_OLD1   0/70272
WINDOWS   0/1517
WWB_SYSOP   0/419
WWB_TECH   0/810
ZCC-PUBLIC   0/1
ZEC   4

 
4DOS   0/134
ABORTION   0/7
ALASKA_CHAT   0/506
ALLFIX_FILE   0/1313
ALLFIX_FILE_OLD1   0/7997
ALT_DOS   0/152
AMATEUR_RADIO   0/1039
AMIGASALE   0/14
AMIGA   0/331
AMIGA_INT   0/1
AMIGA_PROG   0/20
AMIGA_SYSOP   0/26
ANIME   0/15
ARGUS   0/924
ASCII_ART   0/340
ASIAN_LINK   0/651
ASTRONOMY   0/417
AUDIO   0/92
AUTOMOBILE_RACING   0/105
BABYLON5   0/17862
BAG   135
BATPOWER   0/361
BBBS.ENGLISH   0/382
BBSLAW   0/109
BBS_ADS   0/5290
BBS_INTERNET   0/507
BIBLE   0/3563
BINKD   0/1119
BINKLEY   0/215
BLUEWAVE   0/2173
CABLE_MODEMS   0/25
CBM   0/46
CDRECORD   0/66
CDROM   0/20
CLASSIC_COMPUTER   0/378
COMICS   0/15
CONSPRCY   0/899
COOKING   41476
COOKING_OLD1   0/24719
COOKING_OLD2   0/40862
COOKING_OLD3   0/37489
COOKING_OLD4   0/35496
COOKING_OLD5   9370
C_ECHO   0/189
C_PLUSPLUS   0/31
DIRTY_DOZEN   0/201
DOORGAMES   0/2299
DOS_INTERNET   0/196
duplikat   6102
ECHOLIST   0/18295
EC_SUPPORT   0/318
ELECTRONICS   0/359
ELEKTRONIK.GER   1534
ENET.LINGUISTIC   0/13
ENET.POLITICS   0/4
ENET.SOFT   0/11701
ENET.SYSOP   34297
ENET.TALKS   0/32
ENGLISH_TUTOR   0/2000
EVOLUTION   0/1335
FDECHO   0/217
FDN_ANNOUNCE   0/7068
FIDONEWS   25062
FIDONEWS_OLD1   0/49742
FIDONEWS_OLD2   0/35949
FIDONEWS_OLD3   0/30874
FIDONEWS_OLD4   0/37224
FIDO_SYSOP   12922
FIDO_UTIL   0/180
FILEFIND   0/209
FILEGATE   0/212
Möte HAM, 16662 texter
 lista första sista föregående nästa
Text 5559, 1157 rader
Skriven 2012-10-25 22:01:14 av Amsat List (1:323/120.0)
Ärende: [keps] orb12299.amsa
============================
[keps] orb12299.amsa

Sender: keps-bounces@amsat.org
Return-Path: <keps-bounces@amsat.org>
X-Rcpt: craig.healy@chowda.com
X-UIDL: 1351214327.507

SB KEPS @ AMSAT  $ORB12299.O
Orbital Elements  12299.OSCAR

HR AMSAT ORBITAL ELEMENTS FOR OSCAR SATELLITES
FROM WA5QGD FORT WORTH,TX October 25, 2012
BID: ORB12299.O
TO ALL RADIO AMATEURS BT

Satellite: AO-07
Catalog number: 07530
Epoch time:      12299.54746736
Element set:     514
Inclination:      101.4134 deg
RA of node:       291.7714 deg
Eccentricity:    0.0012079
Arg of perigee:   027.7617 deg
Mean anomaly:     332.4093 deg
Mean motion:   12.53592218 rev/day
Decay rate:       -2.7e-07 rev/day^2
Epoch rev:           73638
Checksum:              301

Satellite: FO-29
Catalog number: 24278
Epoch time:      12298.81998031
Element set:    0978
Inclination:      098.5865 deg
RA of node:       022.5209 deg
Eccentricity:    0.0351193
Arg of perigee:   053.8328 deg
Mean anomaly:     309.4765 deg
Mean motion:   13.52990746 rev/day
Decay rate:        8.0e-08 rev/day^2
Epoch rev:           79948
Checksum:              368

Satellite: SO-33
Catalog number: 25509
Epoch time:      12299.43561064
Element set:     351
Inclination:      031.4362 deg
RA of node:       316.5578 deg
Eccentricity:    0.0352411
Arg of perigee:   263.1244 deg
Mean anomaly:     092.9201 deg
Mean motion:   14.28861893 rev/day
Decay rate:      1.137e-05 rev/day^2
Epoch rev:           73129
Checksum:              296

Satellite: RS-22
Catalog number: 27939
Epoch time:      12299.59928421
Element set:     844
Inclination:      097.8015 deg
RA of node:       133.6855 deg
Eccentricity:    0.0012530
Arg of perigee:   208.7698 deg
Mean anomaly:     151.2816 deg
Mean motion:   14.64189300 rev/day
Decay rate:      1.147e-05 rev/day^2
Epoch rev:           48496
Checksum:              338

Satellite: VO-52
Catalog number: 28650
Epoch time:      12298.59139670
Element set:    0243
Inclination:      097.5875 deg
RA of node:       323.1677 deg
Eccentricity:    0.0026061
Arg of perigee:   338.7535 deg
Mean anomaly:     021.2591 deg
Mean motion:   14.83298924 rev/day
Decay rate:      2.347e-05 rev/day^2
Epoch rev:           40415
Checksum:              327

Satellite: HO-68
Catalog number: 36122
Epoch time:      12299.72003090
Element set:     950
Inclination:      100.3452 deg
RA of node:       356.3392 deg
Eccentricity:    0.0007567
Arg of perigee:   167.6628 deg
Mean anomaly:     192.4671 deg
Mean motion:   13.16299290 rev/day
Decay rate:       -4.4e-07 rev/day^2
Epoch rev:           13756
Checksum:              307

/EX
SB KEPS @ AMSAT  $ORB12299.D
Orbital Elements  12299.MICROS

HR AMSAT ORBITAL ELEMENTS FOR THE MICROSATS
FROM WA5QGD FORT WORTH,TX October 25, 2012
BID: ORB12299.D
TO ALL RADIO AMATEURS BT

Satellite: UO-11
Catalog number: 14781
Epoch time:      12299.76148935
Element set:       9
Inclination:      097.9373 deg
RA of node:       358.0358 deg
Eccentricity:    0.0008059
Arg of perigee:   336.6123 deg
Mean anomaly:     023.4722 deg
Mean motion:   14.80621333 rev/day
Decay rate:       9.89e-06 rev/day^2
Epoch rev:           53924
Checksum:              324

Satellite: AO-16
Catalog number: 20439
Epoch time:      12298.90367285
Element set:    0608
Inclination:      098.4407 deg
RA of node:       238.7169 deg
Eccentricity:    0.0012541
Arg of perigee:   133.4336 deg
Mean anomaly:     226.7907 deg
Mean motion:   14.32099089 rev/day
Decay rate:       1.76e-06 rev/day^2
Epoch rev:           18856
Checksum:              335

Satellite: LO-19
Catalog number: 20442
Epoch time:      12299.88510601
Element set:     519
Inclination:      098.4110 deg
RA of node:       242.2351 deg
Eccentricity:    0.0012495
Arg of perigee:   120.6308 deg
Mean anomaly:     239.6106 deg
Mean motion:   14.32317127 rev/day
Decay rate:       3.23e-06 rev/day^2
Epoch rev:           18889
Checksum:              282

Satellite: AO-27
Catalog number: 22825
Epoch time:      12299.78739740
Element set:     227
Inclination:      098.5873 deg
RA of node:       240.6475 deg
Eccentricity:    0.0007624
Arg of perigee:   254.5995 deg
Mean anomaly:     105.4332 deg
Mean motion:   14.29501584 rev/day
Decay rate:       2.77e-06 rev/day^2
Epoch rev:           99513
Checksum:              343

Satellite: IO-26
Catalog number: 22826
Epoch time:      12298.85338972
Element set:    0994
Inclination:      098.5814 deg
RA of node:       240.0636 deg
Eccentricity:    0.0008023
Arg of perigee:   253.1280 deg
Mean anomaly:     106.9021 deg
Mean motion:   14.29778251 rev/day
Decay rate:       2.79e-06 rev/day^2
Epoch rev:           99513
Checksum:              327

Satellite: GO-32
Catalog number: 25397
Epoch time:      12298.46827903
Element set:    0907
Inclination:      098.3801 deg
RA of node:       270.9220 deg
Eccentricity:    0.0000346
Arg of perigee:   280.9703 deg
Mean anomaly:     079.1440 deg
Mean motion:   14.23301550 rev/day
Decay rate:       1.97e-06 rev/day^2
Epoch rev:           74241
Checksum:              295

Satellite: NO-44
Catalog number: 26931
Epoch time:      12299.84675468
Element set:     168
Inclination:      067.0510 deg
RA of node:       143.5776 deg
Eccentricity:    0.0005624
Arg of perigee:   248.9212 deg
Mean anomaly:     111.1265 deg
Mean motion:   14.29848602 rev/day
Decay rate:       2.90e-06 rev/day^2
Epoch rev:           57792
Checksum:              324

Satellite: SO-50
Catalog number: 27607
Epoch time:      12298.89006748
Element set:     897
Inclination:      064.5581 deg
RA of node:       260.2959 deg
Eccentricity:    0.0074053
Arg of perigee:   222.2476 deg
Mean anomaly:     137.2940 deg
Mean motion:   14.72596037 rev/day
Decay rate:      1.468e-05 rev/day^2
Epoch rev:           52906
Checksum:              341

